GFSMA_925_thetae_135.txt.gz
Theta_e
349 349 349 349 349 349 349 345 346 350 351 347 344 344 344 347 345 346 347 344 344 346 341 335 337 338 334 333 332 333 339 345 341 338 337 335 337 338 342 345 344 346 345
351 351 349 343 348 350 349 350 344 348 349 348 345 344 345 348 347 345 348 348 344 344 339 337 337 342 341 336 334 333 334 343 346 345 345 342 340 335 337 336 332 334 343
350 349 349 341 344 351 347 349 350 347 348 348 347 346 345 348 346 345 348 348 347 343 340 339 342 342 343 343 341 337 334 332 335 339 344 343 340 336 333 335 334 334 331
349 350 349 348 346 347 351 349 351 350 348 345 345 347 346 348 347 342 345 347 347 347 346 342 343 344 344 344 343 343 341 337 334 332 332 334 334 334 334 334 335 336 336
348 348 347 347 345 347 351 348 348 350 348 347 345 346 348 347 347 345 345 345 347 347 348 347 343 344 346 346 345 344 344 342 340 339 338 338 338 338 337 337 338 338 337
349 348 349 350 349 348 350 347 347 350 350 349 348 346 347 347 347 346 346 346 345 347 349 350 349 348 345 346 347 346 345 345 344 342 342 342 343 343 343 342 342 341 341
350 350 350 352 352 351 350 346 349 351 351 350 349 348 348 348 347 345 346 345 346 346 346 348 346 348 348 346 346 346 346 345 345 345 344 343 343 344 344 344 344 344 344
348 350 351 352 352 352 353 353 352 350 350 350 348 348 350 346 345 343 342 345 345 345 344 345 347 347 348 348 349 344 344 345 345 346 347 346 345 345 345 345 345 345 345
348 348 348 348 351 351 349 353 350 351 350 349 349 347 349 347 343 342 344 343 343 344 343 344 344 344 342 345 346 345 342 342 342 342 345 346 347 347 347 347 347 347 346
348 349 349 349 348 350 352 349 351 349 350 349 349 348 348 346 348 346 345 345 345 345 346 345 344 345 344 346 346 344 341 340 342 342 344 344 349 348 348 348 348 348 347
352 351 349 349 348 351 351 351 349 352 349 349 349 349 348 348 347 347 348 345 345 345 345 346 345 345 346 344 345 347 342 341 342 342 342 343 343 349 349 350 349 349 348
353 353 351 350 349 349 350 350 349 349 349 348 348 349 348 348 347 347 348 347 346 346 346 345 345 345 345 344 341 342 344 342 342 342 343 344 345 348 346 346 348 347 345
349 351 352 353 352 352 351 351 349 348 348 350 349 349 348 349 348 347 347 346 347 346 346 345 345 345 345 346 346 342 343 343 343 343 345 344 344 347 346 345 344 346 346
335 340 343 347 351 353 353 352 352 351 351 348 349 349 348 348 348 348 348 347 349 347 346 346 345 347 347 347 347 343 342 342 342 344 344 346 346 344 344 345 344 345 345
336 336 338 339 342 347 349 350 350 351 351 350 350 351 350 349 349 349 348 347 348 352 346 343 346 347 346 347 346 345 347 343 343 345 346 345 346 345 344 344 345 345 346
334 335 335 336 338 340 343 346 349 349 350 349 350 349 350 350 349 349 349 348 347 348 351 346 344 346 347 344 346 345 348 343 347 347 346 345 344 345 344 343 345 346 345
333 333 334 334 335 336 339 342 344 348 349 350 349 349 349 348 348 348 348 348 348 348 349 347 347 346 348 345 343 346 349 349 347 346 345 346 345 345 344 345 346 346 342
332 332 332 333 334 334 334 337 341 342 347 348 348 348 348 348 347 346 345 344 347 347 347 350 347 348 347 348 348 349 350 348 348 347 347 346 346 346 345 346 347 344 342
331 331 332 332 332 332 333 334 337 340 345 346 348 348 347 347 346 346 344 346 344 344 346 346 348 348 347 348 348 350 350 351 350 348 345 345 346 346 347 347 347 343 342
331 331 330 330 330 330 330 332 335 338 341 344 344 346 347 347 344 342 340 338 340 342 344 346 346 347 348 348 348 347 349 350 349 348 348 347 349 347 346 348 347 344 343
331 329 327 328 328 328 329 330 333 336 339 342 344 344 345 345 345 342 338 335 335 339 344 345 344 346 348 348 348 345 348 347 349 351 349 349 349 349 348 347 347 346 344
328 325 325 325 326 327 328 330 330 334 337 340 343 343 344 343 340 338 338 337 335 338 340 341 344 345 347 347 346 347 349 349 351 349 350 349 348 349 349 349 348 346 345
326 324 324 322 329 330 330 330 329 331 334 338 341 343 342 342 339 338 334 332 332 335 338 341 343 344 346 346 347 349 350 351 350 350 349 349 349 349 348 348 348 346 345
324 323 323 321 327 331 332 332 331 332 336 337 340 341 342 342 341 340 339 338 338 339 340 339 342 345 346 345 348 349 350 351 350 351 350 350 348 349 347 348 348 344 343
325 324 322 318 322 325 327 330 334 335 337 338 337 339 341 340 338 336 336 337 337 338 339 339 336 334 337 341 346 349 348 349 349 349 349 348 347 348 347 347 347 342 340
324 323 323 319 320 323 322 324 331 334 336 337 337 337 338 339 337 334 333 338 339 338 338 338 337 339 339 341 345 345 347 348 347 347 348 347 346 347 347 346 345 343 337

GFSMA_925_thetae_138.txt.gz
Theta_e
347 348 346 348 347 346 348 349 348 348 350 347 344 344 345 346 347 348 347 348 345 344 344 341 338 338 338 334 333 331 331 341 345 343 338 337 336 337 337 343 345 344 344
349 349 349 349 346 348 351 350 351 348 349 347 344 343 343 345 347 348 347 349 348 344 342 341 339 338 342 342 337 334 331 332 340 344 344 344 342 341 337 335 338 335 332
350 350 348 348 348 347 351 350 351 353 350 347 345 344 342 342 345 347 348 348 350 349 342 341 340 342 342 343 343 343 340 336 332 333 341 342 344 341 338 335 333 334 334
351 350 348 347 347 351 349 350 347 349 350 347 345 344 341 341 342 347 348 347 348 348 349 347 342 342 345 345 344 344 344 343 341 336 333 332 334 335 334 335 335 335 335
350 350 348 347 348 348 349 350 351 348 350 349 348 346 344 343 344 344 344 346 348 347 347 348 347 345 343 345 346 346 345 344 343 342 341 340 340 339 339 339 339 339 339
350 350 349 349 350 349 349 350 352 349 349 351 349 347 346 345 344 343 343 345 345 347 347 348 350 350 346 344 345 346 346 344 344 344 343 342 342 342 343 343 343 343 343
350 352 352 350 351 351 352 352 354 352 350 349 350 350 347 348 348 347 343 343 342 342 345 345 347 347 348 347 346 345 346 346 346 345 344 344 344 343 343 344 344 344 344
353 352 353 353 352 352 353 352 352 353 351 351 350 350 351 346 345 346 346 344 343 342 342 344 346 348 350 347 349 350 349 346 345 345 345 345 346 346 346 345 345 345 345
354 354 352 350 349 348 351 351 351 353 352 349 350 351 352 349 343 343 344 345 342 342 343 344 345 345 347 349 347 347 347 344 342 343 342 342 343 346 347 347 347 347 347
353 353 354 349 349 349 350 349 350 351 351 350 349 350 350 348 350 347 342 346 347 348 346 344 343 344 346 346 346 345 345 346 344 341 341 342 344 344 347 348 348 348 348
355 356 355 355 355 355 350 351 351 351 351 351 349 348 349 351 351 352 350 344 347 347 347 347 346 344 345 347 346 348 347 346 345 342 340 342 342 343 343 349 349 348 349
347 349 352 353 354 353 355 353 352 352 352 351 350 349 349 350 350 350 351 348 345 344 346 347 345 345 344 345 347 346 345 343 344 343 342 342 343 343 344 347 347 345 347
334 335 339 346 347 350 351 351 352 353 353 352 351 351 350 349 348 347 347 347 347 345 345 347 347 347 346 345 343 344 345 343 343 343 342 343 343 345 344 345 346 346 345
335 337 339 340 340 341 344 347 351 351 350 351 353 352 350 350 350 349 348 348 350 347 345 345 346 347 347 347 347 346 346 344 343 343 343 342 344 342 345 346 345 346 343
335 335 337 338 338 339 340 341 343 348 350 350 351 352 353 352 349 350 350 349 349 352 348 345 346 346 347 348 348 348 348 349 346 343 342 342 341 345 345 346 345 345 344
336 336 336 336 337 337 337 338 340 342 344 348 350 350 351 353 352 351 350 350 350 350 351 345 345 344 346 348 348 348 349 349 348 343 342 343 346 345 344 345 345 345 344
334 335 335 335 335 335 336 336 337 338 340 342 346 349 349 350 353 352 350 349 351 351 356 349 347 346 348 348 349 347 348 348 348 348 345 346 347 346 346 344 344 343 345
333 333 334 333 334 336 335 335 335 335 337 339 341 345 349 349 350 352 351 351 350 350 351 353 349 349 349 349 351 351 350 345 347 348 348 346 345 346 346 344 345 344 345
334 334 334 334 333 330 331 333 333 335 336 338 340 342 345 348 349 350 351 351 350 350 349 349 350 350 349 349 350 351 351 350 347 348 348 348 346 346 345 344 345 345 346
334 333 332 330 328 328 328 331 333 334 334 336 339 341 343 346 348 349 351 351 350 349 347 347 347 347 346 346 350 349 350 350 349 348 348 347 347 344 344 345 345 347 347
334 332 330 327 326 326 324 325 327 328 332 334 336 340 341 343 345 347 349 349 348 348 346 344 343 343 343 343 348 349 349 347 347 349 348 347 347 348 349 347 346 346 347
332 332 328 325 326 323 321 324 330 329 329 332 335 337 340 342 343 344 347 345 346 346 345 340 339 341 344 346 349 347 349 347 348 346 350 348 346 347 348 349 349 347 347
333 331 325 326 326 321 320 321 323 327 329 331 333 337 340 341 343 343 344 346 345 341 340 342 343 341 342 343 343 348 349 349 348 346 350 348 347 347 347 347 349 349 348
332 329 324 324 324 321 319 319 322 325 330 331 333 337 339 342 342 343 344 342 341 341 339 338 336 340 343 344 342 346 349 349 350 350 351 350 346 347 348 347 348 348 348
330 326 325 324 321 320 320 320 318 320 328 332 336 338 339 341 341 341 342 343 343 343 340 338 338 339 340 340 343 348 349 350 352 351 349 350 347 346 346 346 348 348 348
327 324 324 322 320 323 321 322 315 322 328 334 338 339 338 338 341 341 342 343 344 344 342 341 341 340 341 341 336 337 341 350 350 352 349 350 348 346 348 345 346 348 346

GFSMA_925_thetae_144.txt.gz
Theta_e
349 348 350 348 348 349 349 345 348 346 349 350 348 348 345 345 344 345 348 345 345 348 346 342 340 338 336 335 335 337 337 346 342 344 344 337 333 337 334 335 338 345 344
349 350 351 350 348 348 348 349 342 352 351 350 349 347 345 343 344 343 345 349 345 348 348 343 342 342 340 340 339 336 333 331 330 334 340 340 338 337 336 336 335 336 342
352 349 348 348 349 349 349 346 345 350 349 351 349 347 346 347 343 342 342 344 347 346 348 345 341 342 342 341 342 342 341 338 334 330 329 337 341 341 342 340 338 336 334
350 350 350 351 350 349 349 349 348 351 352 349 351 349 346 346 343 342 340 341 345 348 348 350 345 341 342 343 343 342 342 342 342 341 336 332 332 334 335 339 339 337 336
351 352 351 351 350 350 350 350 349 347 349 350 350 350 349 345 344 345 343 342 343 347 349 347 350 345 344 342 343 344 344 343 343 344 342 341 339 337 336 336 337 337 337
350 351 352 351 350 350 351 351 352 350 351 352 352 349 351 349 347 344 343 344 346 346 346 346 347 350 347 346 345 343 344 345 345 343 343 343 343 342 342 341 342 342 342
354 353 351 350 350 351 347 338 334 348 348 347 347 347 349 351 352 348 346 348 344 344 344 347 346 350 349 349 348 347 344 343 345 345 343 343 343 343 344 343 343 343 343
355 354 353 351 351 350 347 346 339 337 344 346 346 346 349 349 348 350 350 348 348 346 345 344 345 347 351 351 349 350 347 344 344 343 345 344 344 344 344 345 345 345 346
354 355 354 353 352 353 351 350 349 346 347 347 345 347 350 353 350 347 350 350 349 348 347 346 345 343 344 346 346 347 349 348 347 346 344 343 343 344 345 344 344 344 346
352 351 353 352 352 349 350 351 350 351 351 350 348 347 345 347 350 349 347 351 350 351 349 347 347 346 345 345 345 344 348 351 349 349 347 346 344 343 343 343 342 343 344
338 341 347 349 349 348 349 349 352 353 352 352 351 350 346 342 340 347 349 348 348 349 348 346 344 345 346 347 347 349 347 347 349 350 349 347 346 345 342 342 342 342 343
336 333 338 337 339 342 344 344 343 346 348 348 349 351 351 348 345 346 347 348 350 350 351 349 349 348 346 344 348 350 348 348 347 347 345 344 344 345 344 342 341 342 342
335 334 339 337 338 341 342 342 342 343 343 345 348 349 351 350 350 349 348 347 348 348 348 347 349 350 348 346 345 346 346 346 346 345 345 346 345 344 344 344 340 342 342
338 336 336 338 338 339 340 340 341 341 340 342 343 345 347 347 350 350 349 349 348 343 340 340 338 350 350 350 348 345 346 346 345 345 346 347 345 344 342 344 340 341 342
335 334 336 338 338 339 340 339 340 339 339 340 342 342 343 345 346 346 348 349 349 350 334 337 328 338 346 350 350 348 346 345 345 345 344 344 344 343 343 343 341 342 342
335 337 337 338 337 336 336 338 338 338 338 338 338 339 339 338 339 342 344 346 348 348 342 329 330 334 334 341 347 349 348 347 347 347 346 345 346 343 342 342 342 342 343
337 338 337 338 338 339 337 337 336 336 334 332 334 335 334 332 335 338 341 343 344 347 342 340 333 330 328 335 340 347 349 352 349 348 348 349 347 347 343 342 342 342 342
332 335 336 337 336 336 335 334 334 331 330 331 331 331 330 330 331 333 339 341 342 342 347 348 347 345 337 337 337 340 344 349 353 351 351 350 349 348 346 343 341 341 342
334 337 337 336 335 334 333 332 328 329 328 327 328 328 327 327 326 328 331 338 340 342 343 345 347 346 342 334 334 341 340 341 348 350 350 349 349 348 347 347 346 343 344
336 335 336 335 335 333 330 328 327 325 325 325 326 326 325 324 324 326 332 336 338 340 340 344 346 349 349 348 347 346 342 339 343 343 346 350 350 349 347 347 348 346 345
336 336 335 334 333 332 328 326 325 324 324 324 323 323 323 322 323 325 330 335 337 338 340 343 346 348 351 351 350 349 348 347 347 345 347 348 344 343 345 346 347 347 347
336 334 333 332 330 330 328 326 322 322 322 323 322 322 321 322 323 324 326 331 333 337 341 342 345 346 349 350 349 350 349 348 350 347 347 346 342 336 344 348 346 346 347
335 333 333 327 330 327 327 324 321 320 321 322 322 320 321 323 324 325 331 333 334 335 337 341 343 345 346 346 345 346 345 343 345 345 348 346 346 350 350 350 349 347 347
334 332 328 329 328 328 326 320 321 321 323 319 318 318 320 321 322 329 334 336 337 338 337 340 341 344 345 343 345 344 344 345 345 347 349 347 346 342 343 347 349 350 349
333 329 330 328 328 326 320 322 322 322 323 321 325 325 326 323 328 335 335 337 339 341 342 340 340 343 342 342 341 344 344 346 346 346 346 348 346 344 342 339 346 348 348
333 331 328 328 328 322 321 323 323 321 323 321 323 328 334 335 334 336 337 337 340 342 342 344 342 342 342 344 343 342 342 344 345 344 342 343 344 345 348 348 345 345 348

GFSMA_925_thetae_147.txt.gz
Theta_e
345 349 348 349 348 349 347 347 349 348 348 349 348 347 345 343 344 344 346 347 347 347 348 345 341 336 333 330 331 336 338 340 344 344 340 331 343 346 344 336 337 342 342
346 349 349 351 349 349 348 349 346 341 340 349 350 350 347 343 343 343 344 348 346 345 347 348 343 341 339 337 334 333 336 338 346 345 343 341 336 335 338 333 333 334 343
351 348 347 349 349 348 349 348 347 343 345 347 348 350 349 346 343 341 342 342 348 346 345 346 347 342 342 341 340 339 337 334 332 332 337 344 339 337 336 336 335 334 333
351 352 350 347 348 349 351 350 349 348 348 350 348 348 349 349 344 343 341 340 340 346 347 346 348 347 342 342 342 341 340 340 339 335 331 331 335 339 339 341 340 338 337
351 351 351 350 349 348 349 348 350 349 349 350 348 342 334 340 347 346 346 345 343 340 341 346 347 350 348 342 342 342 342 341 340 341 340 338 334 332 334 335 336 338 338
354 352 352 353 352 352 350 348 347 346 342 345 347 346 338 343 349 348 347 345 342 344 342 344 347 347 348 347 344 342 342 343 343 341 342 342 341 340 338 337 337 337 338
350 353 353 353 352 350 350 349 346 346 344 338 343 345 343 341 342 343 349 349 346 343 344 345 345 345 346 346 348 346 343 343 343 344 343 343 343 342 342 342 341 341 342
354 355 354 353 351 351 351 350 350 347 343 345 344 345 344 345 344 346 347 347 349 349 348 346 344 344 346 346 347 348 347 347 346 343 344 344 343 342 343 343 343 344 343
348 350 350 352 350 351 351 349 346 348 348 348 349 346 345 348 346 343 344 344 343 349 348 348 346 345 345 346 345 348 349 348 348 347 343 343 344 344 344 344 344 344 345
352 351 353 353 352 349 350 348 349 349 350 351 350 348 346 345 345 346 342 340 338 338 343 349 348 346 345 344 344 344 347 346 345 347 347 346 344 343 343 343 344 344 344
338 335 337 339 341 339 341 345 346 347 346 347 347 348 348 347 345 344 344 340 342 344 345 346 345 346 347 346 346 344 344 343 344 344 349 349 347 347 346 345 343 343 343
339 334 337 337 337 339 342 341 341 341 341 342 342 343 347 346 344 341 341 341 342 343 343 343 345 346 348 347 347 345 346 345 345 344 346 349 349 349 348 347 345 343 341
331 335 336 337 338 337 337 338 339 340 339 339 339 340 340 341 342 343 343 343 344 345 345 344 345 344 345 346 347 346 346 344 347 348 347 347 346 347 346 344 345 345 343
337 336 334 334 333 336 336 339 338 337 338 338 338 339 339 340 341 341 341 342 343 344 344 344 344 343 339 338 340 344 346 350 348 348 347 347 346 344 343 345 345 344 343
333 332 335 335 335 335 335 335 337 338 337 336 334 334 335 336 338 337 336 337 339 342 343 342 342 343 339 332 339 336 335 339 345 348 346 345 345 344 346 346 345 344 342
335 337 336 336 336 337 338 338 335 335 333 333 332 329 330 332 333 333 333 330 336 339 341 338 342 342 342 339 332 331 337 339 338 348 347 345 345 344 344 344 344 343 342
333 331 333 335 337 337 336 335 334 333 333 330 329 329 329 330 330 330 329 330 333 336 339 339 340 342 338 333 332 331 334 334 338 345 348 346 345 345 344 344 345 341 342
332 333 336 338 336 335 334 333 331 332 329 325 324 324 324 324 324 326 327 327 327 328 333 338 339 340 342 341 337 332 331 334 338 344 345 346 343 341 342 347 347 345 342
336 336 336 335 334 333 332 330 331 326 325 323 321 321 322 323 324 324 326 325 325 325 327 334 338 340 343 344 343 342 338 336 339 340 338 339 339 335 347 346 348 347 346
336 337 335 334 332 332 329 330 327 323 321 321 321 321 322 323 323 322 324 323 323 325 328 332 338 339 340 343 344 342 339 337 337 339 339 335 334 341 343 348 347 348 348
334 336 332 330 330 328 330 327 321 321 321 321 321 322 323 323 323 323 324 323 323 325 331 333 336 338 339 342 344 345 344 344 344 343 343 337 337 337 339 348 349 347 347
336 334 329 329 328 330 327 323 321 322 320 321 322 323 322 322 322 322 322 323 324 325 326 333 335 336 338 341 344 346 343 344 344 345 341 338 340 343 343 345 345 338 335
335 331 327 329 328 327 324 322 322 321 320 322 324 323 323 324 322 321 322 323 324 324 325 327 332 336 338 341 344 344 341 345 346 346 346 346 346 345 345 346 348 349 350
335 331 328 331 327 327 320 319 321 322 321 323 323 324 323 324 324 322 322 323 324 329 330 330 331 334 339 341 342 341 341 342 344 344 344 344 345 346 345 343 343 344 346
333 330 331 329 328 322 318 318 321 320 322 323 324 324 323 321 324 326 323 323 327 334 334 335 334 333 335 338 340 341 343 342 341 344 341 342 344 345 344 344 344 343 338
333 332 328 328 329 322 318 317 321 319 321 323 323 324 323 322 327 335 329 332 334 335 336 338 337 335 335 338 339 339 340 341 343 341 343 344 342 342 342 343 344 338 342